[[{"header":{"parameterUnit":"m.s-1","parameterCategory":2,"la1":30.2991,"la2":30.254,"lo1":-89.0895,"lo2":-89.0444,"dy":0.0017,"dx":0.0017,"nx":28,"ny":28,"refTime":"2024-08-01T09:00:00:Z","depth":"0","parameterNumber":2,"parameterNumberName":"U-component_of_CURRENTS"},"data":[0,0,0,0,0,0,0,0,0,0,0,0,0,0,0,0,0,0,0,0,0,0,0,0,0,0,0,0,0,0,0,0,0,0,0,0,0,0,0,0,0,0,0,0,0,0,0,0,0,0,0,0,0,0,0,0,0,0,0.0368,0.0368,0,0.0386,0.0386,0.0386,0.0373,0.0373,0.0372,0.0372,0.0346,0.0346,0.0345,0,0,0,0,0,0,0,0,0,0,0,0,0,0.0321,0.0322,0.0368,0.0368,0.0369,0.0386,0.0386,0.0386,0.0373,0.0373,0.0372,0.0371,0.0346,0.0346,0.0345,0,0,0,0,0,0,0,0,0,0,0,0,0,0.034,0.0322,0.0368,0.0365,0.0365,0.0386,0.0386,0.0386,0.0373,0.0373,0.0372,0.0371,0.0346,0.0346,0.0345,0.0358,0,0,0.0344,0.0344,0,0,0,0,0,0,0,0,0.0339,0.0341,0.0365,0.0365,0.0365,0.0377,0.036,0.0375,0.0374,0.0369,0.0372,0.0371,0.0353,0.0352,0.0357,0.0357,0.0356,0.0344,0.0344,0.0344,0.0344,0,0,0,0,0,0,0,0.0337,0.034,0.0374,0.0365,0.0366,0.0362,0.0364,0.0363,0.0364,0.0369,0.0369,0.0373,0.0353,0.0357,0.0356,0.0355,0.0344,0.0344,0.0344,0.0344,0.0382,0.0383,0,0,0,0,0,0,0.0338,0.0339,0.0374,0.0375,0.0351,0.0364,0.0366,0.0373,0.0365,0.0363,0.0373,0.0372,0.0358,0.0356,0.0355,0.0371,0.0344,0.0344,0.0343,0.038,0.0382,0.0383,0,0,0,0,0,0,0.0337,0.0341,0.0373,0.0358,0.0362,0.0366,0.0374,0.0374,0.0379,0.0368,0.0365,0.0378,0.0357,0.0355,0.0355,0.037,0.0343,0.0343,0.0379,0.0381,0.0382,0.0402,0,0,0,0,0,0,0.0336,0.0341,0.0347,0.0358,0.0363,0.0388,0.0375,0.0375,0.0383,0.0381,0.0372,0.0368,0.0357,0.0356,0.0355,0.0369,0.0343,0.0377,0.038,0.0382,0.04,0.0405,0.0408,0,0,0,0,0,0.0334,0.0345,0.0347,0.0352,0.0371,0.0388,0.039,0.0389,0.0384,0.039,0.0382,0.0369,0.037,0.0356,0.0355,0.0369,0.0376,0.0379,0.0382,0.0398,0.0404,0.0408,0,0,0,0,0,0,0.0324,0.0345,0.0348,0.0363,0.0376,0.0386,0.0392,0.0394,0.0395,0.039,0.0377,0.0374,0.0379,0.0377,0.0362,0.039,0.0374,0.0377,0.0388,0.0393,0.0397,0.0392,0.0342,0,0,0,0,0,0.0327,0.0343,0.0359,0.0372,0.0378,0.0387,0.0393,0.0396,0.0399,0.0398,0.0391,0.0389,0.0392,0.0393,0.0391,0.0404,0.0419,0.0417,0.0422,0.0425,0.0422,0.0437,0.0442,0.0392,0.0392,0.0392,0,0,0.0325,0.0341,0.0349,0.0372,0.0379,0.0394,0.0388,0.0402,0.0413,0.0395,0.0402,0.0398,0.0398,0.0409,0.0413,0.0407,0.0459,0.0428,0.0431,0.0426,0.044,0.0445,0.0449,0.0394,0.0394,0.0393,0,0,0.0336,0.0346,0.0363,0.0376,0.0396,0.0401,0.0407,0.0419,0.0421,0.0432,0.0423,0.0427,0.0431,0.0433,0.0436,0.0465,0.0476,0.0475,0.0493,0.0507,0.0511,0.0514,0.0587,0.0596,0.0481,0.0481,0.0481,0,0.0331,0.0362,0.037,0.0391,0.0402,0.0405,0.0423,0.043,0.044,0.0445,0.0435,0.0448,0.0442,0.0462,0.0471,0.0472,0.0502,0.047,0.0511,0.0514,0.0517,0.059,0.06,0.0482,0.0482,0.0482,0.0482,0,0.036,0.038,0.0391,0.0418,0.0429,0.0446,0.0455,0.0464,0.0465,0.047,0.0484,0.0478,0.0487,0.0493,0.0487,0.0515,0.054,0.0509,0.0493,0.0523,0.0599,0.0609,0.0484,0.0484,0.0483,0.0483,0,0,0.0362,0.0403,0.0408,0.042,0.0446,0.0455,0.0475,0.0493,0.0504,0.0508,0.0527,0.0529,0.0525,0.0529,0.0529,0.0541,0.0599,0.0537,0.0538,0.0603,0.0682,0.0945,0.0981,0.0571,0.0572,0.0573,0.0744,0,0.0384,0.0422,0.0441,0.0467,0.0483,0.0493,0.0507,0.0521,0.053,0.0545,0.0546,0.056,0.0541,0.0551,0.0559,0.0583,0.0619,0.0559,0.0649,0.0653,0.0876,0.0999,0.1183,0.1371,0.0753,0.0755,0.0756,0,0.0413,0.0434,0.0465,0.049,0.0496,0.0505,0.0527,0.0543,0.0564,0.0576,0.059,0.0594,0.0627,0.0593,0.0662,0.0627,0.0658,0.0677,0.0683,0.0923,0.0935,0.1233,0.1413,0.1404,0.0772,0.077,0.0769,0,0.0414,0.0451,0.0474,0.0484,0.051,0.0516,0.0524,0.0545,0.0569,0.0596,0.0633,0.0648,0.0696,0.07,0.0782,0.0709,0.0883,0.078,0.1054,0.1074,0.1249,0.1285,0.1424,0.0827,0.0826,0.0826,0.0825,0,0.0436,0.0457,0.0468,0.048,0.0488,0.0507,0.0523,0.0539,0.0582,0.0655,0.0645,0.0743,0.0722,0.083,0.0832,0.1052,0.0937,0.1109,0.1149,0.1272,0.1307,0.1321,0.1243,0.0832,0.0831,0.083,0.0828,0,0.0446,0.0462,0.0474,0.0486,0.0488,0.0486,0.0519,0.0558,0.0593,0.0698,0.0722,0.0834,0.1029,0.1073,0.1155,0.1197,0.1359,0.1403,0.1603,0.1666,0.1907,0.1824,0.1897,0.1894,0.1715,0.1723,0.173,0,0.0467,0.0475,0.0464,0.0474,0.0479,0.0484,0.052,0.055,0.0628,0.08,0.0892,0.1098,0.1326,0.1597,0.1734,0.189,0.1711,0.2103,0.199,0.202,0.195,0.1738,0.1707,0.2227,0.2237,0.2245,0.2252,0,0.0503,0.0484,0.0488,0.0511,0.0531,0.0579,0.0644,0.0695,0.0809,0.0932,0.1207,0.1397,0.1764,0.2084,0.2328,0.2404,0.2124,0.2284,0.2226,0.2336,0.2194,0.218,0.2026,0.2325,0.2318,0.2312,0.2308,0.2305,0.0534,0.0545,0.0568,0.0612,0.0633,0.0761,0.0798,0.0926,0.1093,0.1343,0.1479,0.1811,0.2247,0.2675,0.2755,0.301,0.271,0.2956,0.2848,0.2624,0.2648,0.273,0.3127,0.3125,0.3122,0.312,0.3118,0,0.0684,0.0707,0.0709,0.0788,0.0859,0.0844,0.0974,0.1051,0.1283,0.1548,0.1807,0.2346,0.2806,0.3083,0.3484,0.3513,0.3304,0.3448,0.3121,0.3054,0.3102,0.3159,0.3691,0.3691,0.3691,0.3691,0.3691,0.3691,0.0784,0.0874,0.0904,0.1061,0.1073,0.1182,0.1247,0.136,0.1528,0.1911,0.2205,0.2431,0.2863,0.3487,0.3776,0.3754,0.3464,0.3486,0.3271,0.3265,0.3204,0.3147,0.3183,0.3711,0.3711,0.3217,0.3214,0.3212]},{"header":{"parameterUnit":"m.s-1","parameterCategory":2,"la1":30.2991,"la2":30.254,"lo1":-89.0895,"lo2":-89.0444,"dy":0.0017,"dx":0.0017,"nx":28,"ny":28,"refTime":"2024-08-01T09:00:00:Z","depth":"0","parameterNumber":3,"parameterNumberName":"V-component_of_CURRENTS"},"data":[0,0,0,0,0,0,0,0,0,0,0,0,0,0,0,0,0,0,0,0,0,0,0,0,0,0,0,0,0,0,0,0,0,0,0,0,0,0,0,0,0,0,0,0,0,0,0,0,0,0,0,0,0,0,0,0,0,0,-0.1508,-0.1509,0,-0.1546,-0.1547,-0.1547,-0.1548,-0.1547,-0.1547,-0.1547,-0.1578,-0.1579,-0.158,0,0,0,0,0,0,0,0,0,0,0,0,0,-0.1445,-0.1446,-0.1508,-0.1509,-0.1509,-0.1546,-0.1547,-0.1547,-0.1548,-0.1547,-0.1547,-0.1547,-0.1578,-0.1579,-0.158,0,0,0,0,0,0,0,0,0,0,0,0,0,-0.1476,-0.1446,-0.1508,-0.1515,-0.1516,-0.1546,-0.1547,-0.1547,-0.1548,-0.1547,-0.1547,-0.1546,-0.1577,-0.1579,-0.1581,-0.1604,0,0,-0.1586,-0.1587,0,0,0,0,0,0,0,0,-0.1474,-0.1478,-0.1513,-0.1514,-0.1516,-0.1543,-0.1536,-0.1566,-0.1548,-0.1535,-0.1547,-0.1546,-0.1567,-0.1569,-0.1577,-0.1605,-0.1606,-0.1586,-0.1587,-0.1588,-0.1589,0,0,0,0,0,0,0,-0.1472,-0.1476,-0.1522,-0.1514,-0.1515,-0.1519,-0.1523,-0.1542,-0.1553,-0.1536,-0.1536,-0.1542,-0.1567,-0.1575,-0.1577,-0.1607,-0.1586,-0.1588,-0.1589,-0.159,-0.167,-0.1671,0,0,0,0,0,0,-0.147,-0.1475,-0.1521,-0.1524,-0.1494,-0.1521,-0.1525,-0.1534,-0.1553,-0.1555,-0.1543,-0.1542,-0.1572,-0.1575,-0.1578,-0.1622,-0.1588,-0.159,-0.1591,-0.1669,-0.1671,-0.1672,0,0,0,0,0,0,-0.1468,-0.1473,-0.152,-0.15,-0.1507,-0.1523,-0.1533,-0.1535,-0.1543,-0.1558,-0.156,-0.1548,-0.1572,-0.1576,-0.1601,-0.1622,-0.1591,-0.1592,-0.1668,-0.167,-0.1671,-0.1699,0,0,0,0,0,0,-0.1466,-0.1473,-0.1475,-0.15,-0.1508,-0.1542,-0.1533,-0.1536,-0.1548,-0.1547,-0.1564,-0.1566,-0.1571,-0.1598,-0.1603,-0.1624,-0.1594,-0.1667,-0.1669,-0.1671,-0.1697,-0.1702,-0.1706,0,0,0,0,0,-0.1464,-0.1473,-0.1475,-0.1481,-0.1512,-0.1542,-0.1547,-0.1555,-0.1548,-0.1558,-0.1569,-0.1565,-0.1614,-0.1601,-0.1606,-0.1628,-0.1666,-0.1668,-0.1671,-0.1695,-0.1701,-0.1705,0,0,0,0,0,0,-0.1446,-0.1475,-0.1478,-0.1495,-0.1517,-0.1543,-0.1554,-0.1557,-0.1573,-0.1572,-0.1579,-0.1583,-0.1611,-0.1618,-0.1603,-0.1658,-0.164,-0.1643,-0.1657,-0.1662,-0.1666,-0.1657,-0.1595,0,0,0,0,0,-0.1444,-0.1458,-0.1487,-0.15,-0.1515,-0.1534,-0.1545,-0.1553,-0.1572,-0.1578,-0.159,-0.1606,-0.1627,-0.1641,-0.1657,-0.169,-0.1658,-0.1708,-0.1713,-0.1716,-0.1713,-0.1692,-0.1694,-0.168,-0.168,-0.168,0,0,-0.1438,-0.1458,-0.1463,-0.1497,-0.1517,-0.1543,-0.154,-0.1564,-0.1581,-0.158,-0.1607,-0.1619,-0.1637,-0.1671,-0.1685,-0.168,-0.1699,-0.1719,-0.1722,-0.1717,-0.1695,-0.1696,-0.1697,-0.1681,-0.1681,-0.1681,0,0,-0.1445,-0.1457,-0.1477,-0.1499,-0.1533,-0.1549,-0.1556,-0.1586,-0.1596,-0.1627,-0.1628,-0.1653,-0.1687,-0.1705,-0.1718,-0.1757,-0.1718,-0.1764,-0.1786,-0.1766,-0.1767,-0.1767,-0.1702,-0.1696,-0.1772,-0.1772,-0.1772,0,-0.1434,-0.1463,-0.1486,-0.1517,-0.1529,-0.1553,-0.1573,-0.1597,-0.1628,-0.1631,-0.1639,-0.1681,-0.1704,-0.1736,-0.1759,-0.1767,-0.1729,-0.1764,-0.177,-0.1769,-0.1769,-0.1703,-0.1696,-0.1774,-0.1774,-0.1774,-0.1774,0,-0.1464,-0.1483,-0.15,-0.1542,-0.156,-0.1582,-0.1616,-0.1633,-0.1647,-0.1663,-0.1691,-0.1725,-0.1739,-0.1767,-0.1782,-0.1799,-0.176,-0.177,-0.1751,-0.1771,-0.1701,-0.1693,-0.1776,-0.1776,-0.1775,-0.1775,0,0,-0.1446,-0.1505,-0.1512,-0.1511,-0.1569,-0.1574,-0.1618,-0.1644,-0.1628,-0.1693,-0.1676,-0.1763,-0.1762,-0.1777,-0.1797,-0.1809,-0.1781,-0.1795,-0.1793,-0.1721,-0.1694,-0.1569,-0.1548,-0.1786,-0.1786,-0.1785,-0.1635,0,-0.1457,-0.1497,-0.1532,-0.1547,-0.1556,-0.1586,-0.1597,-0.1622,-0.1641,-0.1632,-0.1694,-0.1684,-0.1771,-0.1751,-0.1793,-0.1771,-0.1766,-0.1818,-0.1694,-0.1689,-0.1569,-0.1538,-0.1383,-0.1229,-0.1628,-0.1626,-0.1625,0,-0.1476,-0.149,-0.1512,-0.1502,-0.1506,-0.1513,-0.15,-0.1513,-0.1533,-0.1537,-0.1581,-0.1602,-0.1646,-0.1691,-0.1707,-0.1731,-0.1717,-0.1714,-0.1708,-0.1577,-0.1551,-0.128,-0.1199,-0.1357,-0.1613,-0.1614,-0.1615,0,-0.1426,-0.1466,-0.1466,-0.1475,-0.1484,-0.1472,-0.1465,-0.1478,-0.1418,-0.1456,-0.1388,-0.1497,-0.1446,-0.1527,-0.1552,-0.1616,-0.1517,-0.1595,-0.147,-0.1459,-0.1295,-0.127,-0.1342,-0.1581,-0.1582,-0.1582,-0.1582,0,-0.141,-0.14,-0.1431,-0.142,-0.1352,-0.1397,-0.1307,-0.1322,-0.1272,-0.1134,-0.1308,-0.1188,-0.1395,-0.1372,-0.1475,-0.1414,-0.145,-0.1446,-0.1411,-0.1297,-0.1275,-0.1379,-0.1521,-0.1576,-0.1578,-0.1579,-0.158,0,-0.1335,-0.1382,-0.1341,-0.1338,-0.1319,-0.1257,-0.1145,-0.1039,-0.1056,-0.0872,-0.0855,-0.0901,-0.0876,-0.1047,-0.1101,-0.1213,-0.1269,-0.1198,-0.103,-0.0979,-0.1061,-0.1208,-0.1188,-0.127,-0.1064,-0.106,-0.1056,0,-0.1281,-0.127,-0.1237,-0.1144,-0.1124,-0.1034,-0.0912,-0.0913,-0.0762,-0.0638,-0.0484,-0.0464,-0.0346,-0.0431,-0.065,-0.0782,-0.1012,-0.0745,-0.0874,-0.1017,-0.1158,-0.1265,-0.135,-0.0656,-0.0649,-0.0644,-0.064,0,-0.1118,-0.1126,-0.1074,-0.0899,-0.0768,-0.0606,-0.0443,-0.0311,-0.0233,-0.0097,0.0158,0.024,0.0146,0.0091,-0.016,-0.0301,-0.0834,-0.0639,-0.0839,-0.0877,-0.0946,-0.1022,-0.0796,-0.0593,-0.0598,-0.0601,-0.0604,-0.0606,-0.0921,-0.0837,-0.0732,-0.0547,-0.0385,-0.0101,0.006,0.0235,0.049,0.0732,0.0738,0.0915,0.071,0.0393,0.0129,-0.0295,-0.0447,-0.0431,-0.0599,-0.0695,-0.0784,-0.0434,-0.0175,-0.0177,-0.0179,-0.0181,-0.0182,0,-0.0549,-0.0484,-0.0333,-0.0058,0.0214,0.0192,0.0471,0.0621,0.0941,0.1134,0.1339,0.1457,0.1188,0.0727,0.0178,-0.0181,-0.0426,-0.043,-0.06,-0.0699,-0.0387,-0.0383,-0.0095,-0.0095,-0.0095,-0.0094,-0.0094,-0.0094,-0.0313,-0.0077,-0.0024,0.0496,0.0661,0.0968,0.1114,0.126,0.1389,0.1699,0.1859,0.1961,0.1702,0.0662,-0.0126,-0.0347,-0.0738,-0.0708,-0.1008,-0.0855,-0.0872,-0.0888,-0.0918,-0.0747,-0.0748,-0.1213,-0.1218,-0.1221]}],[{"header":{"parameterUnit":"m.s-1","parameterCategory":2,"la1":30.2991,"la2":30.254,"lo1":-89.0895,"lo2":-89.0444,"dy":0.0017,"dx":0.0017,"nx":28,"ny":28,"refTime":"2024-08-01T09:00:00:Z","depth":"2","parameterNumber":2,"parameterNumberName":"U-component_of_CURRENTS"},"data":[0,0,0,0,0,0,0,0,0,0,0,0,0,0,0,0,0,0,0,0,0,0,0,0,0,0,0,0,0,0,0,0,0,0,0,0,0,0,0,0,0,0,0,0,0,0,0,0,0,0,0,0,0,0,0,0,0,0,0.0281,0.028,0,0.0262,0.0262,0.0262,0.0205,0.0204,0.0203,0.0202,0.0132,0.0131,0.0131,0,0,0,0,0,0,0,0,0,0,0,0,0,0.0257,0.0257,0.0281,0.028,0.028,0.0262,0.0262,0.0262,0.0205,0.0204,0.0203,0.0201,0.0133,0.0132,0.0131,0,0,0,0,0,0,0,0,0,0,0,0,0,0.0254,0.0258,0.0281,0.0251,0.0249,0.0263,0.0262,0.0262,0.0206,0.0204,0.0202,0.0201,0.0133,0.0132,0.013,0.0156,0,0,0.0127,0.0126,0,0,0,0,0,0,0,0,0.0255,0.0255,0.0256,0.0253,0.025,0.0236,0.0228,0.0224,0.0206,0.022,0.0202,0.02,0.0164,0.016,0.0159,0.0153,0.015,0.0127,0.0126,0.0125,0.0125,0,0,0,0,0,0,0,0.0255,0.0256,0.0272,0.0256,0.0253,0.0236,0.0233,0.0227,0.02,0.0219,0.0215,0.0216,0.0162,0.0161,0.0157,0.0149,0.0127,0.0126,0.0125,0.0124,0.0161,0.0163,0,0,0,0,0,0,0.0263,0.0256,0.0272,0.0271,0.025,0.0238,0.0235,0.0241,0.0201,0.0194,0.0218,0.0214,0.0164,0.0159,0.0154,0.0165,0.0125,0.0124,0.0123,0.0159,0.0162,0.0163,0,0,0,0,0,0,0.0262,0.0265,0.0273,0.0264,0.0264,0.024,0.0247,0.0241,0.0234,0.0201,0.0192,0.0215,0.0162,0.0156,0.0161,0.0162,0.0124,0.0123,0.0157,0.016,0.0162,0.0197,0,0,0,0,0,0,0.0262,0.0265,0.0271,0.0265,0.0265,0.0287,0.0249,0.0242,0.0239,0.0233,0.0197,0.0188,0.016,0.0163,0.0159,0.016,0.0122,0.0155,0.0159,0.0162,0.0194,0.02,0.0206,0,0,0,0,0,0.0261,0.0282,0.0272,0.0273,0.0275,0.0289,0.0288,0.0263,0.024,0.0248,0.0229,0.0189,0.018,0.0164,0.0159,0.0159,0.0154,0.0158,0.0161,0.0191,0.0199,0.0206,0,0,0,0,0,0,0.0273,0.0278,0.0267,0.0287,0.0289,0.028,0.0286,0.027,0.0262,0.0253,0.0214,0.0207,0.0211,0.0194,0.0177,0.0184,0.016,0.0163,0.0184,0.0191,0.0197,0.0196,0.0121,0,0,0,0,0,0.0281,0.0297,0.0297,0.0312,0.0316,0.0301,0.0303,0.0289,0.0282,0.0275,0.0254,0.0236,0.0228,0.0216,0.0211,0.0216,0.0235,0.0216,0.0222,0.0227,0.0227,0.0238,0.0244,0.0176,0.0176,0.0176,0,0,0.0289,0.0295,0.0302,0.0316,0.0313,0.0322,0.0298,0.0307,0.0308,0.0271,0.027,0.0261,0.0239,0.0243,0.0243,0.0223,0.0275,0.0232,0.0236,0.0233,0.0243,0.0249,0.0255,0.0179,0.0178,0.0178,0,0,0.0313,0.032,0.0336,0.0343,0.0348,0.0344,0.0349,0.0347,0.0338,0.0348,0.032,0.0315,0.0306,0.0285,0.0273,0.0316,0.0313,0.0317,0.0333,0.0344,0.035,0.0354,0.0458,0.0472,0.0311,0.0311,0.0311,0,0.0316,0.0334,0.0344,0.0359,0.0358,0.0355,0.0362,0.0367,0.0365,0.0355,0.0353,0.0337,0.0321,0.0308,0.0327,0.0324,0.0366,0.03,0.035,0.0354,0.0358,0.0463,0.0477,0.0313,0.0313,0.0312,0.0312,0,0.0347,0.0357,0.0371,0.0383,0.039,0.0402,0.0405,0.041,0.0401,0.0393,0.0392,0.0384,0.0364,0.0367,0.036,0.0375,0.0414,0.0362,0.0324,0.0367,0.0477,0.0491,0.0316,0.0315,0.0314,0.0314,0,0,0.0353,0.0383,0.0385,0.0371,0.0398,0.0393,0.0416,0.0414,0.0408,0.0417,0.0417,0.0409,0.0399,0.0389,0.0377,0.0393,0.0485,0.0397,0.0396,0.0492,0.0591,0.0739,0.0769,0.0435,0.0436,0.0437,0.0683,0,0.0362,0.0373,0.04,0.0396,0.0387,0.04,0.0413,0.0412,0.0422,0.0434,0.0426,0.0431,0.0408,0.0409,0.0419,0.0468,0.0512,0.0428,0.0543,0.0548,0.0664,0.0784,0.0556,0.0765,0.0697,0.0699,0.0701,0,0.0372,0.0369,0.0365,0.0359,0.0359,0.0364,0.0357,0.0374,0.0403,0.0417,0.0423,0.0437,0.0478,0.0448,0.0544,0.0496,0.0551,0.0591,0.0599,0.0725,0.072,0.0698,0.0792,0.0724,0.0722,0.072,0.0719,0,0.0317,0.0339,0.0319,0.032,0.0327,0.032,0.0328,0.035,0.0384,0.0414,0.0469,0.0477,0.0544,0.0565,0.0683,0.0609,0.0832,0.0724,0.0917,0.0931,0.0755,0.0752,0.0788,0.0788,0.0787,0.0786,0.0786,0,0.0296,0.0274,0.0284,0.0262,0.0245,0.0263,0.0273,0.0286,0.036,0.0446,0.0453,0.0562,0.0577,0.0713,0.0741,0.0942,0.0881,0.0973,0.1003,0.0775,0.0772,0.0715,0.0703,0.0796,0.0794,0.0792,0.079,0,0.023,0.0243,0.021,0.0208,0.0214,0.0192,0.0267,0.0315,0.0363,0.0496,0.0528,0.0673,0.0876,0.0948,0.107,0.1083,0.1198,0.1271,0.1076,0.108,0.1273,0.126,0.149,0.1497,0.1503,0.1508,0.1512,0,0.0193,0.017,0.0164,0.0185,0.0187,0.0191,0.025,0.0301,0.04,0.0598,0.0704,0.0925,0.111,0.1386,0.1426,0.1552,0.1483,0.1432,0.1226,0.134,0.1344,0.1321,0.1301,0.1026,0.1026,0.1026,0.1026,0,0.0131,0.0132,0.0128,0.0185,0.0229,0.0288,0.0377,0.0441,0.0578,0.0699,0.0955,0.1102,0.138,0.1439,0.1619,0.1623,0.138,0.1447,0.1584,0.0912,0.0929,0.0926,0.0914,0.1026,0.1026,0.1026,0.1026,0.1026,0.0109,0.0126,0.0178,0.0242,0.0308,0.0439,0.047,0.061,0.0758,0.093,0.1092,0.1239,0.1277,0.1473,0.152,0.1532,0.1596,0.1415,0.1401,0.139,0.1321,0.135,0.1518,0.1521,0.1523,0.1525,0.1527,0,0.0163,0.0231,0.0274,0.0377,0.0475,0.0505,0.0629,0.0649,0.0813,0.0972,0.113,0.1099,0.1175,0.1253,0.1265,0.1333,0.1168,0.1276,0.0964,0.0966,0.0968,0.0862,0.0947,0.0946,0.0945,0.0944,0,0,0.0219,0.0315,0.0373,0.0556,0.0625,0.0712,0.0764,0.0777,0.0828,0.0922,0.0977,0.107,0.1158,0.1008,0.1014,0.0988,0.0959,0.0953,0.14,0.1028,0.1029,0.1025,0.0868,0,0,0,0,0]},{"header":{"parameterUnit":"m.s-1","parameterCategory":2,"la1":30.2991,"la2":30.254,"lo1":-89.0895,"lo2":-89.0444,"dy":0.0017,"dx":0.0017,"nx":28,"ny":28,"refTime":"2024-08-01T09:00:00:Z","depth":"2","parameterNumber":3,"parameterNumberName":"V-component_of_CURRENTS"},"data":[0,0,0,0,0,0,0,0,0,0,0,0,0,0,0,0,0,0,0,0,0,0,0,0,0,0,0,0,0,0,0,0,0,0,0,0,0,0,0,0,0,0,0,0,0,0,0,0,0,0,0,0,0,0,0,0,0,0,0.0049,0.0049,0,0.0058,0.0058,0.0058,0.008,0.008,0.008,0.0081,0.0154,0.0156,0.0157,0,0,0,0,0,0,0,0,0,0,0,0,0,0.0011,0.0012,0.0049,0.0049,0.0049,0.0058,0.0058,0.0058,0.0079,0.008,0.0081,0.0081,0.0154,0.0156,0.0158,0,0,0,0,0,0,0,0,0,0,0,0,0,0.0025,0.0012,0.0049,0.006,0.0062,0.0058,0.0058,0.0058,0.0079,0.008,0.0081,0.0081,0.0153,0.0155,0.0158,0.0159,0,0,0.0165,0.0166,0,0,0,0,0,0,0,0,0.0024,0.0026,0.0059,0.006,0.0061,0.0068,0.0072,0.0095,0.0079,0.0073,0.0081,0.0082,0.0131,0.0135,0.0135,0.0162,0.0165,0.0165,0.0166,0.0167,0.0168,0,0,0,0,0,0,0,0.0023,0.0026,0.0052,0.0059,0.006,0.0052,0.0055,0.0076,0.0099,0.0073,0.0075,0.0076,0.0132,0.0132,0.0137,0.0167,0.0165,0.0167,0.0168,0.0169,0.0167,0.0166,0,0,0,0,0,0,0.0023,0.0025,0.0052,0.0053,0.0044,0.0053,0.0056,0.0065,0.0098,0.0103,0.0075,0.0077,0.0128,0.0134,0.0139,0.0123,0.0167,0.017,0.0171,0.0169,0.0167,0.0165,0,0,0,0,0,0,0.0023,0.0026,0.0052,0.0038,0.0041,0.0053,0.0063,0.0065,0.0069,0.0098,0.0105,0.0078,0.0129,0.0136,0.0146,0.0127,0.0171,0.0173,0.017,0.0168,0.0166,0.0102,0,0,0,0,0,0,0.0022,0.0026,0.0031,0.0039,0.0042,0.0052,0.0062,0.0065,0.0068,0.0071,0.0103,0.011,0.013,0.0142,0.0148,0.0131,0.0175,0.0172,0.017,0.0167,0.0106,0.0098,0.0091,0,0,0,0,0,0.002,0.0034,0.0031,0.0034,0.005,0.0052,0.0052,0.0062,0.0068,0.0069,0.0079,0.0109,0.0129,0.0143,0.015,0.0133,0.0174,0.017,0.0167,0.011,0.01,0.0092,0,0,0,0,0,0,0.0029,0.0037,0.0035,0.0052,0.0049,0.0055,0.0059,0.0061,0.0068,0.0072,0.0097,0.0105,0.01,0.0125,0.0139,0.0121,0.0154,0.0152,0.0107,0.0098,0.0091,0.0087,0.0177,0,0,0,0,0,0.0029,0.0037,0.0039,0.005,0.0049,0.005,0.0052,0.0055,0.0062,0.0067,0.0082,0.0093,0.009,0.0102,0.0108,0.011,0.013,0.01,0.0093,0.0086,0.0086,0.0104,0.0099,0.0155,0.0155,0.0155,0,0,0.0036,0.004,0.0045,0.005,0.005,0.0043,0.0054,0.0056,0.0044,0.0074,0.0067,0.007,0.0082,0.0071,0.0072,0.0094,0.0074,0.0082,0.0077,0.008,0.01,0.0095,0.0091,0.0153,0.0153,0.0153,0,0,0.0048,0.0054,0.006,0.0053,0.0049,0.0043,0.0043,0.0042,0.0037,0.0025,0.0032,0.0019,0.0034,0.0027,0.0027,-0.0016,0.0029,-0.0011,-0.0041,-0.0023,-0.0027,-0.003,-0.0037,-0.004,-0.0007,-0.0007,-0.0007,0,0.0055,0.0066,0.0061,0.0057,0.0057,0.0042,0.0044,0.0023,0.0022,0.0029,0.0018,0.0016,0.0006,0.0,-0.0043,-0.0032,-0.0015,-0.0006,-0.0032,-0.0034,-0.0036,-0.0042,-0.0044,-0.0011,-0.001,-0.001,-0.001,0,0.0066,0.007,0.0072,0.006,0.0053,0.0055,0.0027,0.0018,0.0005,-0.0003,-0.0012,-0.0038,-0.0027,-0.0055,-0.0075,-0.0095,-0.0078,-0.0048,-0.0005,-0.0045,-0.005,-0.0051,-0.0016,-0.0014,-0.0013,-0.0013,0,0,0.0102,0.0087,0.0086,0.0095,0.0061,0.007,0.0033,0.0027,0.0045,-0.0004,0.0021,-0.0063,-0.0061,-0.0065,-0.0083,-0.0104,-0.0151,-0.0096,-0.0094,-0.0098,-0.0123,-0.019,-0.0198,-0.0111,-0.0111,-0.0111,-0.0128,0,0.0117,0.0127,0.0105,0.0112,0.0122,0.0094,0.0079,0.0064,0.005,0.0064,0.0012,0.0015,-0.0068,-0.006,-0.0103,-0.0124,-0.0153,-0.015,-0.0088,-0.0087,-0.0136,-0.0201,-0.0209,-0.0231,-0.013,-0.013,-0.013,0,0.0136,0.0146,0.0158,0.0176,0.018,0.0172,0.019,0.0174,0.0161,0.0152,0.0128,0.0107,0.0034,-0.0008,-0.0089,-0.0075,-0.012,-0.0147,-0.0146,-0.0184,-0.0156,-0.017,-0.0237,-0.0132,-0.0132,-0.0131,-0.0131,0,0.0185,0.0189,0.0211,0.0207,0.0209,0.0219,0.022,0.0212,0.0217,0.0213,0.0223,0.017,0.014,0.0078,-0.005,-0.005,-0.0114,-0.0098,-0.0197,-0.0202,-0.0186,-0.019,-0.0139,-0.0139,-0.0139,-0.0139,-0.0139,0,0.0217,0.0237,0.0241,0.0253,0.0289,0.0282,0.0317,0.031,0.032,0.0334,0.0273,0.0268,0.0158,0.0097,-0.0001,-0.0129,-0.0075,-0.0225,-0.0216,-0.0215,-0.0221,-0.0104,-0.01,-0.014,-0.014,-0.014,-0.014,0,0.0248,0.0253,0.0278,0.0298,0.0305,0.033,0.0345,0.0377,0.0378,0.0395,0.0388,0.0334,0.0242,0.0131,0.0035,-0.0077,-0.0169,-0.0216,-0.0236,-0.0231,-0.0278,-0.0277,-0.0323,-0.0326,-0.0328,-0.033,-0.0331,0,0.0261,0.0272,0.0296,0.0305,0.0306,0.0339,0.0359,0.0385,0.0408,0.0422,0.0433,0.0368,0.0279,0.0098,-0.0068,-0.0232,-0.0205,-0.0334,-0.036,-0.0314,-0.0299,-0.0294,-0.029,-0.0365,-0.0367,-0.0368,-0.0369,0,0.0253,0.0254,0.0264,0.0296,0.0319,0.0359,0.0393,0.0414,0.0447,0.0443,0.0429,0.037,0.0206,0.0013,-0.0201,-0.0301,-0.0315,-0.0371,-0.0284,-0.0333,-0.0359,-0.0343,-0.0336,-0.0382,-0.038,-0.0379,-0.0379,-0.0378,0.0209,0.0214,0.0221,0.0259,0.0308,0.0362,0.0361,0.04,0.0412,0.0414,0.0395,0.0312,0.0164,-0.0151,-0.0303,-0.0436,-0.0439,-0.0482,-0.0474,-0.0466,-0.0483,-0.0513,-0.0569,-0.0569,-0.0569,-0.0569,-0.0569,0,0.0112,0.014,0.018,0.0215,0.0266,0.0321,0.0369,0.0366,0.0346,0.0393,0.0343,0.0164,-0.0037,-0.0152,-0.0398,-0.0569,-0.0545,-0.0574,-0.0504,-0.0494,-0.0484,-0.0498,-0.059,-0.059,-0.059,-0.059,0,0,0.0046,0.0051,0.0104,0.0158,0.0205,0.0253,0.0269,0.0285,0.0317,0.029,0.0271,0.0215,0.0024,-0.0141,-0.0345,-0.0458,-0.0426,-0.0473,-0.0451,-0.0336,-0.0323,-0.044,-0.0454,0,0,0,0,0]}],[{"header":{"parameterUnit":"m.s-1","parameterCategory":2,"la1":30.2991,"la2":30.254,"lo1":-89.0895,"lo2":-89.0444,"dy":0.0017,"dx":0.0017,"nx":28,"ny":28,"refTime":"2024-08-01T09:00:00:Z","depth":"4","parameterNumber":2,"parameterNumberName":"U-component_of_CURRENTS"},"data":[0,0,0,0,0,0,0,0,0,0,0,0,0,0,0,0,0,0,0,0,0,0,0,0,0,0,0,0,0,0,0,0,0,0,0,0,0,0,0,0,0,0,0,0,0,0,0,0,0,0,0,0,0,0,0,0,0,0,0.0151,0.0151,0,0.018,0.018,0.0181,0.0205,0.0205,0.0206,0.0206,0.022,0.022,0.022,0,0,0,0,0,0,0,0,0,0,0,0,0,0.0103,0.0104,0.0151,0.0151,0.0152,0.018,0.018,0.0181,0.0205,0.0205,0.0206,0.0206,0.022,0.022,0.022,0,0,0,0,0,0,0,0,0,0,0,0,0,0.0126,0.0104,0.0151,0.0168,0.017,0.018,0.018,0.0181,0.0205,0.0205,0.0206,0.0206,0.022,0.022,0.022,0.0208,0,0,0.022,0.022,0,0,0,0,0,0,0,0,0.0125,0.0128,0.0165,0.0167,0.0169,0.0191,0.0169,0.019,0.0205,0.019,0.0206,0.0207,0.0209,0.021,0.0213,0.0209,0.021,0.022,0.022,0.022,0.022,0,0,0,0,0,0,0,0.0123,0.0126,0.0161,0.0166,0.0168,0.017,0.0174,0.0173,0.0195,0.0191,0.0194,0.0199,0.021,0.0212,0.0213,0.021,0.022,0.022,0.022,0.022,0.0218,0.0218,0,0,0,0,0,0,0.0122,0.0125,0.016,0.0162,0.0149,0.0171,0.0175,0.0182,0.0195,0.0198,0.0198,0.02,0.0212,0.0213,0.0214,0.0234,0.022,0.022,0.022,0.0218,0.0218,0.0218,0,0,0,0,0,0,0.0121,0.0125,0.0159,0.0145,0.015,0.0171,0.0179,0.0182,0.0196,0.0201,0.0203,0.0209,0.0213,0.0214,0.0222,0.0234,0.022,0.022,0.0218,0.0218,0.0218,0.0254,0,0,0,0,0,0,0.012,0.0125,0.0131,0.0145,0.0151,0.0173,0.0178,0.0183,0.0198,0.0201,0.0211,0.0212,0.0213,0.0222,0.0222,0.0233,0.022,0.0218,0.0218,0.0218,0.0253,0.0255,0.0257,0,0,0,0,0,0.0118,0.0124,0.0131,0.0135,0.0158,0.0173,0.0176,0.0192,0.0198,0.0206,0.0213,0.0212,0.0222,0.0223,0.0223,0.0234,0.0219,0.0218,0.0218,0.0252,0.0255,0.0257,0,0,0,0,0,0,0.0105,0.0128,0.0135,0.0148,0.0163,0.0178,0.0187,0.0196,0.0207,0.0212,0.0214,0.0216,0.0225,0.0221,0.0222,0.0231,0.0219,0.0218,0.0244,0.0247,0.0249,0.0268,0.022,0,0,0,0,0,0.0105,0.0116,0.0137,0.0146,0.0156,0.0172,0.0181,0.0193,0.0204,0.0211,0.0218,0.0221,0.0222,0.0229,0.0226,0.0234,0.0242,0.0239,0.0241,0.0243,0.0258,0.0275,0.028,0.0218,0.0218,0.0218,0,0,0.01,0.0116,0.0121,0.0144,0.0157,0.0173,0.0179,0.0197,0.0211,0.0209,0.0229,0.0227,0.0223,0.0233,0.0237,0.0235,0.0263,0.0243,0.0245,0.0259,0.0275,0.0282,0.0287,0.0218,0.0218,0.0218,0,0,0.0097,0.0114,0.0123,0.0139,0.0164,0.0176,0.0184,0.0205,0.0219,0.0233,0.0235,0.0243,0.0244,0.0251,0.0252,0.0262,0.0269,0.0257,0.0294,0.031,0.0316,0.0321,0.0338,0.0344,0.0265,0.0265,0.0265,0,0.0091,0.0108,0.0127,0.0143,0.016,0.018,0.0196,0.0211,0.0232,0.0249,0.0243,0.0259,0.0253,0.0276,0.0282,0.0269,0.0283,0.0287,0.0315,0.032,0.0325,0.0341,0.0348,0.0267,0.0266,0.0266,0.0266,0,0.0096,0.0113,0.0122,0.0151,0.017,0.0187,0.0214,0.0236,0.0251,0.0268,0.0293,0.0289,0.0306,0.0299,0.0296,0.0329,0.0329,0.0313,0.0314,0.0334,0.0349,0.0356,0.0269,0.0268,0.0268,0.0267,0,0,0.0074,0.0117,0.012,0.0139,0.0178,0.0194,0.0227,0.0264,0.0292,0.0309,0.0341,0.0346,0.0359,0.0361,0.0359,0.0374,0.0414,0.0369,0.0369,0.0396,0.0462,0.0457,0.0464,0.041,0.0412,0.0413,0.0459,0,0.0073,0.0101,0.0126,0.0157,0.0177,0.0215,0.0245,0.0283,0.0311,0.0346,0.0361,0.0382,0.0378,0.0389,0.041,0.0408,0.0434,0.0404,0.043,0.0431,0.0433,0.0472,0.0417,0.0464,0.0465,0.0466,0.0467,0,0.0071,0.0094,0.0123,0.0173,0.0186,0.0214,0.0277,0.0305,0.0362,0.0382,0.0421,0.0433,0.047,0.045,0.0492,0.0478,0.0485,0.048,0.0481,0.0473,0.0439,0.0438,0.0479,0.0478,0.0477,0.0476,0.0475,0,0.005,0.0092,0.0117,0.0134,0.0192,0.0226,0.0263,0.0323,0.0353,0.0413,0.0435,0.0482,0.0502,0.0523,0.0542,0.0519,0.0582,0.0539,0.0545,0.0544,0.0518,0.0512,0.0577,0.0577,0.0577,0.0576,0.0576,0,0.0043,0.0061,0.0115,0.0133,0.0178,0.0223,0.0278,0.0321,0.0376,0.0414,0.0459,0.0485,0.0523,0.0565,0.0569,0.0596,0.0611,0.0571,0.0564,0.053,0.0525,0.0523,0.0516,0.0578,0.0578,0.0577,0.0577,0,0.002,0.0048,0.0085,0.015,0.0173,0.0212,0.0284,0.0319,0.0372,0.0423,0.0442,0.0501,0.0545,0.059,0.0624,0.0628,0.0646,0.0653,0.0638,0.0626,0.0586,0.058,0.0647,0.0647,0.0647,0.0648,0.0648,0,0.0009,0.0026,0.0094,0.0124,0.0161,0.0218,0.0256,0.0315,0.0346,0.0424,0.044,0.0507,0.0546,0.0601,0.0637,0.0675,0.0666,0.0691,0.062,0.061,0.0597,0.059,0.0584,0.0648,0.0649,0.0649,0.0649,0,-0.0,0.0027,0.0065,0.0121,0.017,0.021,0.0267,0.0284,0.0351,0.0392,0.044,0.0487,0.0543,0.0581,0.0644,0.0656,0.068,0.0694,0.0691,0.0624,0.0613,0.0598,0.0591,0.065,0.065,0.065,0.065,0,-0.0003,0.0021,0.0072,0.0127,0.0174,0.0208,0.0235,0.0279,0.0313,0.0392,0.0404,0.0475,0.0526,0.0572,0.0616,0.0653,0.0622,0.0611,0.0612,0.0611,0.0583,0.0563,0.0597,0,0,0,0,0,0.0,0.0031,0.0074,0.0135,0.0175,0.0201,0.0246,0.0267,0.0321,0.0348,0.0378,0.0427,0.0499,0.0528,0.0556,0.0595,0.0625,0.0628,0.0612,0.0656,0.0655,0.0627,0,0,0,0,0,0,0.0004,0.0044,0.0073,0.0129,0.0163,0.0202,0.0228,0.0259,0.0272,0.0328,0.0357,0.0415,0.0473,0.0475,0.0548,0.0563,0.0552,0.0672,0.0673,0.0657,0.0656,0.0655,0.0625,0,0,0,0,0]},{"header":{"parameterUnit":"m.s-1","parameterCategory":2,"la1":30.2991,"la2":30.254,"lo1":-89.0895,"lo2":-89.0444,"dy":0.0017,"dx":0.0017,"nx":28,"ny":28,"refTime":"2024-08-01T09:00:00:Z","depth":"4","parameterNumber":3,"parameterNumberName":"V-component_of_CURRENTS"},"data":[0,0,0,0,0,0,0,0,0,0,0,0,0,0,0,0,0,0,0,0,0,0,0,0,0,0,0,0,0,0,0,0,0,0,0,0,0,0,0,0,0,0,0,0,0,0,0,0,0,0,0,0,0,0,0,0,0,0,0.0055,0.0055,0,0.0012,0.0011,0.001,-0.0007,-0.0007,-0.0007,-0.0007,-0.0049,-0.005,-0.0051,0,0,0,0,0,0,0,0,0,0,0,0,0,0.0097,0.0097,0.0055,0.0055,0.0054,0.0012,0.0011,0.001,-0.0007,-0.0007,-0.0007,-0.0006,-0.0048,-0.005,-0.0051,0,0,0,0,0,0,0,0,0,0,0,0,0,0.0068,0.0096,0.0055,0.0041,0.0039,0.0012,0.0011,0.001,-0.0007,-0.0007,-0.0007,-0.0006,-0.0048,-0.005,-0.0052,-0.0069,0,0,-0.0058,-0.0058,0,0,0,0,0,0,0,0,0.007,0.0066,0.0044,0.0042,0.004,0.0009,0.001,-0.0016,-0.0007,0.001,-0.0007,-0.0006,-0.0029,-0.0033,-0.0043,-0.0071,-0.0073,-0.0058,-0.0059,-0.006,-0.006,0,0,0,0,0,0,0,0.0072,0.0068,0.0037,0.0043,0.0041,0.0028,0.0024,0.0005,-0.0011,0.0008,0.0007,0.0003,-0.003,-0.0041,-0.0044,-0.0074,-0.0058,-0.0059,-0.0061,-0.0061,-0.0118,-0.0118,0,0,0,0,0,0,0.008,0.007,0.0038,0.0036,0.0057,0.0027,0.0023,0.0018,-0.0011,-0.0015,0.0003,0.0003,-0.0037,-0.0041,-0.0045,-0.0044,-0.006,-0.0062,-0.0063,-0.0117,-0.0118,-0.0118,0,0,0,0,0,0,0.0081,0.0077,0.004,0.0053,0.0047,0.0026,0.0021,0.0017,0.0003,-0.0015,-0.0019,-0.0007,-0.0037,-0.0042,-0.0068,-0.0047,-0.0062,-0.0064,-0.0117,-0.0117,-0.0118,-0.0057,0,0,0,0,0,0,0.0082,0.0078,0.0074,0.0053,0.0047,0.0027,0.002,0.0016,0.0001,-0.0,-0.0025,-0.0028,-0.0038,-0.0065,-0.007,-0.005,-0.0066,-0.0116,-0.0117,-0.0118,-0.0059,-0.0056,-0.0053,0,0,0,0,0,0.0084,0.0081,0.0074,0.007,0.0043,0.0027,0.0022,0.0008,0.0,-0.0004,-0.0026,-0.0028,-0.0072,-0.0068,-0.0073,-0.0053,-0.0116,-0.0117,-0.0118,-0.006,-0.0056,-0.0053,0,0,0,0,0,0,0.0092,0.0078,0.007,0.0061,0.0046,0.0025,0.0018,0.0005,-0.0017,-0.002,-0.0039,-0.0044,-0.0058,-0.0074,-0.0068,-0.0074,-0.0092,-0.0094,-0.0046,-0.0043,-0.004,-0.0045,-0.0067,0,0,0,0,0,0.0092,0.0089,0.0071,0.0063,0.0057,0.0035,0.0025,0.0014,-0.0006,-0.0016,-0.0034,-0.0053,-0.0066,-0.007,-0.0091,-0.0096,-0.0127,-0.0087,-0.0084,-0.0081,-0.0091,-0.0131,-0.0132,-0.012,-0.012,-0.012,0,0,0.0092,0.0084,0.0081,0.0064,0.0051,0.0055,0.0029,0.0016,0.0022,-0.0017,-0.0022,-0.005,-0.007,-0.0074,-0.008,-0.0081,-0.0098,-0.0082,-0.0079,-0.0091,-0.0132,-0.0133,-0.0134,-0.0121,-0.0121,-0.0121,0,0,0.0101,0.0083,0.009,0.0083,0.0069,0.0059,0.0056,0.0032,0.0025,0.0008,-0.0011,-0.0032,-0.0058,-0.0059,-0.0063,-0.0062,-0.0089,-0.0066,-0.0042,-0.0079,-0.008,-0.0081,-0.0106,-0.011,-0.0053,-0.0053,-0.0053,0,0.01,0.0103,0.0087,0.0096,0.0088,0.0066,0.0068,0.0068,0.0039,0.0014,0.0013,-0.0048,-0.0046,-0.0056,-0.0039,-0.005,-0.0084,-0.0045,-0.0073,-0.0075,-0.0078,-0.0104,-0.0109,-0.005,-0.0051,-0.0051,-0.0051,0,0.0121,0.0121,0.0122,0.0131,0.0122,0.0116,0.0113,0.0096,0.0076,0.0056,0.0017,0.0002,-0.0042,-0.0024,-0.0021,-0.0034,-0.0055,-0.007,-0.0077,-0.0075,-0.0102,-0.0109,-0.0046,-0.0047,-0.0048,-0.0049,0,0,0.0118,0.0134,0.0133,0.0118,0.0132,0.0107,0.013,0.0106,0.007,0.0064,0.0012,0.003,-0.0012,-0.0021,-0.0025,-0.0029,-0.0041,-0.0047,-0.005,-0.0062,-0.0127,-0.0112,-0.0118,-0.0067,-0.0069,-0.007,-0.0133,0,0.0131,0.0138,0.0155,0.0144,0.0131,0.0123,0.0124,0.01,0.0072,0.002,0.0013,-0.0037,0.0003,-0.0035,-0.0026,-0.0059,-0.006,-0.0023,-0.0137,-0.014,-0.0119,-0.0126,-0.0073,-0.0138,-0.0139,-0.014,-0.0141,0,0.0143,0.0135,0.0137,0.0096,0.0088,0.0088,0.0026,0.0024,-0.0017,-0.005,-0.0081,-0.0109,-0.0109,-0.009,-0.0114,-0.01,-0.0107,-0.0114,-0.0118,-0.0135,-0.0138,-0.0147,-0.0154,-0.0153,-0.0152,-0.0151,-0.015,0,0.0105,0.0108,0.0093,0.009,0.0068,0.0046,0.0025,-0.0012,-0.0044,-0.0105,-0.0148,-0.0173,-0.0196,-0.0209,-0.019,-0.0173,-0.0231,-0.0218,-0.0209,-0.0208,-0.0227,-0.0226,-0.0246,-0.0246,-0.0245,-0.0245,-0.0245,0,0.0096,0.0072,0.0064,0.0048,-0.001,-0.0011,-0.0076,-0.0105,-0.0147,-0.0183,-0.0194,-0.0219,-0.0228,-0.0247,-0.0235,-0.024,-0.0269,-0.0214,-0.0228,-0.0199,-0.0193,-0.0231,-0.0229,-0.0248,-0.0247,-0.0247,-0.0246,0,0.0054,0.0067,0.0025,-0.0008,-0.0024,-0.0077,-0.0125,-0.0171,-0.0202,-0.0244,-0.0262,-0.0274,-0.028,-0.0287,-0.0313,-0.0295,-0.0313,-0.0307,-0.0278,-0.0288,-0.0253,-0.0247,-0.0314,-0.0314,-0.0314,-0.0314,-0.0315,0,0.0032,0.0016,-0.0028,-0.0054,-0.0067,-0.013,-0.0162,-0.0201,-0.0222,-0.0255,-0.0264,-0.029,-0.0283,-0.0303,-0.0316,-0.0333,-0.0313,-0.0344,-0.0282,-0.0255,-0.0262,-0.0256,-0.025,-0.0315,-0.0315,-0.0315,-0.0315,0,-0.0026,-0.0031,-0.0063,-0.0102,-0.0138,-0.0185,-0.0217,-0.0234,-0.025,-0.0282,-0.0252,-0.0261,-0.0267,-0.0271,-0.0299,-0.03,-0.0343,-0.0345,-0.0343,-0.0285,-0.0257,-0.0262,-0.0256,-0.0315,-0.0315,-0.0315,-0.0315,0,-0.0075,-0.0107,-0.0122,-0.0162,-0.0194,-0.0204,-0.0231,-0.0222,-0.0242,-0.0238,-0.0226,-0.0229,-0.0236,-0.0255,-0.0276,-0.0289,-0.027,-0.0269,-0.0271,-0.0272,-0.023,-0.0187,-0.0244,0,0,0,0,0,-0.0126,-0.0148,-0.0179,-0.0202,-0.0218,-0.0225,-0.0244,-0.0251,-0.0249,-0.0213,-0.0212,-0.02,-0.021,-0.0227,-0.0229,-0.0289,-0.0298,-0.0296,-0.0303,-0.0317,-0.0317,-0.0273,0,0,0,0,0,0,-0.0162,-0.0191,-0.0187,-0.0205,-0.0215,-0.0227,-0.023,-0.0229,-0.0197,-0.0192,-0.0185,-0.0199,-0.0206,-0.019,-0.0222,-0.0233,-0.0239,-0.0309,-0.0309,-0.0317,-0.0317,-0.0317,-0.0272,0,0,0,0,0]}]]